User: anonymous   Login
Location: Caltech
(34.1382°N, 118.1253°W)
Time: 18:56:13
(UTC-07:00)
Language:

Iridium 75 - Orbit

View from above orbital plane
View from above orbital plane
View from above satellite
View from above satellite

Ground track
Ground track

The orbit data is extracted from the following two-line orbital elements,

1 25346U 98032E   17147.82856619 +.00000173 +00000-0 +54573-4 0  9996
2 25346 086.3987 232.6099 0002307 095.6111 264.5347 14.34219465996485
Epoch (UTC): 27 May 2017 19:53:08
Eccentricity: 0.0002307
inclination: 86.3987°
perigee height: 776 km
apogee height: 779 km
right ascension of ascending node: 232.6099°
argument of perigee: 95.6111°
revolutions per day: 14.34219465
mean anomaly at epoch: 264.5347°
orbit number at epoch: 99648

The dashed part of the orbit path shows where the satellite is in the earth's shadow,  

DLR